"read_dt","SO2 (ppb)","flags","PMT voltage (V)","lamp voltage (V)","lamp intensity (Hz)","internal temp (C)","react chamber temp (C)","sample flow (l/min)","pres (mmHg)","SO2 bkg (ppb)","SO2 coefficient"
2014-05-03 00:00:00,2683E-2,5C000400,-0724,1038,10008,023.6,045.2,0.165,755.3,01.16,0.508
2014-05-03 00:01:00,2699E-2,5C000400,-0724,1038,10006,023.6,045.2,0.165,755.2,01.16,0.508
2014-05-03 00:02:00,2651E-2,5C000400,-0724,1039,10134,023.7,045.2,0.165,755.2,01.16,0.508
2014-05-03 00:03:00,2707E-2,5C000400,-0724,1039,10314,023.7,045.2,0.165,755.2,01.16,0.508
2014-05-03 00:04:00,2718E-2,5C000400,-0724,1035,10272,023.6,045.2,0.165,755.2,01.16,0.508
2014-05-03 00:05:00,2723E-2,5C000400,-0724,1037,10165,023.6,045.2,0.165,755.2,01.16,0.508
2014-05-03 00:06:00,2747E-2,5C000400,-0724,1037,10236,023.6,045.2,0.165,755.2,01.16,0.508
2014-05-03 00:07:00,2760E-2,5C000410,-0724,1037,10072,023.7,045.2,0.164,755.2,01.16,0.508
2014-05-03 00:08:00,2724E-2,5C000400,-0724,1038,10025,023.7,045.2,0.164,755.2,01.16,0.508
2014-05-03 00:09:00,2743E-2,5C000400,-0724,1039,10148,023.7,045.2,0.164,755.2,01.16,0.508
2014-05-03 00:10:00,2731E-2,5C000400,-0724,1038,10175,023.7,045.2,0.164,755.2,01.16,0.508
2014-05-03 00:11:00,2711E-2,5C000400,-0724,1037,10171,023.7,045.2,0.164,755.2,01.16,0.508
2014-05-03 00:12:00,2729E-2,5C000400,-0724,1037,10248,023.7,045.1,0.164,755.1,01.16,0.508
2014-05-03 00:13:00,2728E-2,5C000400,-0724,1036,10322,023.7,045.2,0.164,755.1,01.16,0.508
2014-05-03 00:14:00,2736E-2,5C000400,-0724,1036,10170,023.7,045.2,0.164,755.1,01.16,0.508
2014-05-03 00:15:00,2732E-2,5C000400,-0724,1037,10201,023.7,045.2,0.164,755.2,01.16,0.508
2014-05-03 00:16:00,2705E-2,5C000400,-0724,1037,10021,023.7,045.2,0.164,755.2,01.16,0.508
2014-05-03 00:17:00,2718E-2,5C000400,-0724,1037,10090,023.7,045.2,0.164,755.1,01.16,0.508
2014-05-03 00:18:00,2702E-2,5C000400,-0724,1036,10148,023.7,045.1,0.164,755.1,01.16,0.508
2014-05-03 00:19:00,2717E-2,5C000410,-0724,1036,9883,023.7,045.2,0.164,755.1,01.16,0.508
2014-05-03 00:20:00,2744E-2,5C000400,-0724,1036,10186,023.7,045.2,0.164,755.0,01.17,0.508
2014-05-03 00:21:00,2702E-2,5C000400,-0724,1036,10199,023.7,045.2,0.164,755.0,01.17,0.508
2014-05-03 00:22:00,2713E-2,5C000400,-0724,1036,10095,023.7,045.2,0.164,755.0,01.17,0.508
2014-05-03 00:23:00,2716E-2,5C000400,-0724,1036,10234,023.7,045.2,0.164,755.0,01.17,0.508
2014-05-03 00:24:00,2712E-2,5C000400,-0724,1036,10002,023.7,045.2,0.164,755.0,01.17,0.508
2014-05-03 00:25:00,2706E-2,5C000400,-0724,1035,10216,023.7,045.2,0.164,755.0,01.17,0.508
2014-05-03 00:26:00,2780E-2,5C000400,-0724,1036,10153,023.8,045.1,0.164,755.0,01.17,0.508
2014-05-03 00:27:00,2723E-2,5C000400,-0724,1036,10271,023.8,045.2,0.164,755.0,01.17,0.508
2014-05-03 00:28:00,2736E-2,5C000400,-0724,1036,10197,023.8,045.2,0.164,755.0,01.17,0.508
2014-05-03 00:29:00,2763E-2,5C000400,-0724,1036,10305,023.8,045.2,0.164,754.9,01.17,0.508
2014-05-03 00:30:00,2771E-2,5C000400,-0724,1036,10154,023.8,045.2,0.164,754.9,01.17,0.508
2014-05-03 00:31:00,2733E-2,5C000400,-0724,1035,10140,023.8,045.2,0.164,755.0,01.17,0.508
2014-05-03 00:32:00,2748E-2,5C000400,-0724,1035,10053,023.8,045.2,0.164,754.9,01.17,0.508
2014-05-03 00:33:00,2747E-2,5C000400,-0724,1035,10149,023.8,045.2,0.164,754.9,01.17,0.508
2014-05-03 00:34:00,2768E-2,5C000400,-0724,1035,10155,023.8,045.2,0.164,754.9,01.17,0.508
2014-05-03 00:35:00,2754E-2,5C000400,-0724,1035,10248,023.8,045.2,0.164,755.0,01.17,0.508
2014-05-03 00:36:00,2761E-2,5C000400,-0724,1036,10202,023.8,045.2,0.164,754.9,01.17,0.508
2014-05-03 00:37:00,2800E-2,5C000400,-0724,1036,10278,023.8,045.2,0.164,754.8,01.17,0.508
2014-05-03 00:38:00,2755E-2,5C000400,-0724,1034,10132,023.9,045.2,0.164,754.8,01.17,0.508
2014-05-03 00:39:00,2777E-2,5C000400,-0724,1034,10206,023.9,045.2,0.164,754.8,01.17,0.508
2014-05-03 00:40:00,2752E-2,5C000400,-0724,1034,10083,023.9,045.2,0.164,754.8,01.17,0.508
2014-05-03 00:41:00,2771E-2,5C000400,-0724,1035,10243,023.9,045.2,0.164,754.8,01.17,0.508
2014-05-03 00:42:00,2770E-2,5C000400,-0724,1035,10190,023.9,045.2,0.164,754.8,01.17,0.508
2014-05-03 00:43:00,2761E-2,5C000400,-0724,1034,10125,023.9,045.2,0.164,754.7,01.17,0.508
2014-05-03 00:44:00,2811E-2,5C000400,-0724,1034,10134,023.9,045.2,0.164,754.8,01.17,0.508
2014-05-03 00:45:00,2771E-2,5C000400,-0724,1033,10006,023.9,045.2,0.164,754.8,01.17,0.508
2014-05-03 00:46:00,2756E-2,5C000400,-0724,1035,10091,023.9,045.2,0.164,754.7,01.17,0.508
2014-05-03 00:47:00,2808E-2,5C000400,-0724,1034,10064,023.9,045.2,0.164,754.7,01.17,0.508
2014-05-03 00:48:00,2746E-2,5C000400,-0724,1032,10112,023.9,045.2,0.164,754.7,01.17,0.508
2014-05-03 00:49:00,2760E-2,5C000400,-0724,1034,10283,023.9,045.2,0.164,754.7,01.17,0.508
2014-05-03 00:50:00,2793E-2,5C000400,-0724,1033,10217,023.9,045.2,0.164,754.7,01.17,0.508
2014-05-03 00:51:00,2749E-2,5C000400,-0724,1034,10153,023.9,045.2,0.164,754.7,01.17,0.508
2014-05-03 00:52:00,2796E-2,5C000400,-0724,1033,10239,023.9,045.2,0.164,754.6,01.17,0.508
2014-05-03 00:53:00,2793E-2,5C000400,-0724,1033,10251,024.0,045.2,0.164,754.6,01.17,0.508
2014-05-03 00:54:00,2737E-2,5C000400,-0724,1032,10124,024.0,045.2,0.164,754.6,01.17,0.508
2014-05-03 00:55:00,2786E-2,5C000400,-0724,1033,10176,024.0,045.2,0.164,754.6,01.17,0.508
2014-05-03 00:56:00,2784E-2,5C000400,-0724,1033,10157,023.9,045.2,0.164,754.6,01.17,0.508
2014-05-03 00:57:00,2768E-2,5C000400,-0724,1034,10166,024.0,045.2,0.164,754.6,01.17,0.508
2014-05-03 00:58:00,2790E-2,5C000400,-0724,1033,10054,024.0,045.2,0.164,754.5,01.17,0.508
2014-05-03 00:59:00,2758E-2,5C000400,-0724,1032,10222,024.0,045.2,0.164,754.6,01.17,0.508
2014-05-03 01:00:00,2793E-2,5C000400,-0724,1033,10158,024.0,045.2,0.164,754.5,01.17,0.508
2014-05-03 01:01:00,2807E-2,5C000400,-0724,1032,10270,024.0,045.2,0.164,754.5,01.17,0.508
2014-05-03 01:02:00,2710E-2,5C000400,-0724,1031,10095,024.0,045.2,0.164,754.5,01.17,0.508
2014-05-03 01:03:00,2698E-2,5C000400,-0724,1031,10161,024.0,045.2,0.164,754.4,01.17,0.508
2014-05-03 01:04:00,2683E-2,5C000400,-0724,1032,10290,024.0,045.2,0.164,754.4,01.17,0.508
2014-05-03 01:05:00,2688E-2,5C000400,-0724,1031,10297,024.0,045.2,0.164,754.4,01.17,0.508
2014-05-03 01:06:00,2725E-2,5C000400,-0724,1032,10179,024.0,045.2,0.164,754.5,01.17,0.508
2014-05-03 01:07:00,2681E-2,5C000400,-0724,1031,10357,024.1,045.2,0.163,754.4,01.17,0.508
2014-05-03 01:08:00,2639E-2,5C000400,-0724,1030,10036,024.1,045.2,0.164,754.4,01.17,0.508
2014-05-03 01:09:00,2662E-2,5C000400,-0724,1031,10178,024.1,045.2,0.163,754.4,01.17,0.508
2014-05-03 01:10:00,2684E-2,5C000400,-0724,1030,10229,024.1,045.2,0.163,754.3,01.17,0.508
2014-05-03 01:11:00,2669E-2,5C000400,-0724,1031,10370,024.1,045.2,0.163,754.3,01.17,0.508
2014-05-03 01:12:00,2664E-2,5C000400,-0724,1030,10135,024.1,045.2,0.163,754.3,01.17,0.508
2014-05-03 01:13:00,2672E-2,5C000400,-0724,1029,10350,024.1,045.2,0.163,754.3,01.17,0.508
2014-05-03 01:14:00,2686E-2,5C000400,-0724,1029,10164,024.1,045.2,0.163,754.3,01.17,0.508
2014-05-03 01:15:00,2698E-2,5C000400,-0724,1029,10124,024.1,045.2,0.163,754.2,01.17,0.508
2014-05-03 01:16:00,2684E-2,5C000400,-0724,1029,10088,024.1,045.2,0.163,754.2,01.17,0.508
2014-05-03 01:17:00,2681E-2,5C000400,-0724,1029,10373,024.1,045.2,0.163,754.2,01.17,0.508
2014-05-03 01:18:00,2694E-2,5C000400,-0724,1028,10205,024.2,045.2,0.163,754.2,01.17,0.508
2014-05-03 01:19:00,2698E-2,5C000400,-0724,1029,10222,024.1,045.2,0.163,754.3,01.17,0.508
2014-05-03 01:20:00,2664E-2,5C000400,-0724,1029,10206,024.2,045.2,0.163,754.3,01.17,0.508
2014-05-03 01:21:00,2684E-2,5C000400,-0724,1029,10144,024.2,045.2,0.163,754.2,01.17,0.508
2014-05-03 01:22:00,2675E-2,5C000400,-0724,1029,10118,024.2,045.2,0.163,754.2,01.17,0.508
2014-05-03 01:23:00,2686E-2,5C000400,-0724,1028,10174,024.2,045.2,0.163,754.1,01.17,0.508
2014-05-03 01:24:00,2696E-2,5C000400,-0724,1028,10328,024.2,045.1,0.163,754.2,01.17,0.508
2014-05-03 01:25:00,2700E-2,5C000400,-0724,1029,10274,024.2,045.2,0.163,754.2,01.17,0.508
2014-05-03 01:26:00,2661E-2,5C000400,-0724,1029,10106,024.2,045.2,0.163,754.2,01.17,0.508
2014-05-03 01:27:00,2712E-2,5C000400,-0724,1028,10048,024.2,045.2,0.163,754.2,01.17,0.508
2014-05-03 01:28:00,2704E-2,5C000400,-0724,1029,10145,024.2,045.2,0.163,754.1,01.17,0.508
2014-05-03 01:29:00,2716E-2,5C000400,-0724,1028,10199,024.2,045.2,0.163,754.1,01.17,0.508
2014-05-03 01:30:00,2722E-2,5C000400,-0724,1029,10153,024.3,045.2,0.163,754.2,01.17,0.508
2014-05-03 01:31:00,2724E-2,5C000400,-0724,1029,10236,024.3,045.2,0.163,754.2,01.17,0.508
2014-05-03 01:32:00,2720E-2,5C000400,-0724,1029,10280,024.3,045.2,0.163,754.1,01.17,0.508
2014-05-03 01:33:00,2688E-2,5C000400,-0724,1028,10067,024.3,045.2,0.163,754.1,01.17,0.508
2014-05-03 01:34:00,2732E-2,5C000410,-0724,1029,10255,024.3,045.2,0.163,754.1,01.17,0.508
2014-05-03 01:35:00,2751E-2,5C000400,-0724,1028,10216,024.3,045.2,0.163,754.1,01.17,0.508
2014-05-03 01:36:00,2739E-2,5C000400,-0724,1029,10268,024.3,045.2,0.163,754.1,01.17,0.508
2014-05-03 01:37:00,2778E-2,5C000400,-0724,1029,10276,024.3,045.2,0.163,754.1,01.17,0.508
2014-05-03 01:38:00,2740E-2,5C000400,-0724,1028,10369,024.3,045.2,0.163,754.1,01.17,0.508
2014-05-03 01:39:00,2731E-2,5C000400,-0724,1028,10275,024.3,045.2,0.163,754.1,01.17,0.508
2014-05-03 01:40:00,2719E-2,5C000400,-0724,1028,10204,024.3,045.2,0.163,754.1,01.17,0.508
2014-05-03 01:41:00,2696E-2,5C000400,-0724,1027,10268,024.3,045.2,0.163,754.0,01.17,0.508
2014-05-03 01:42:00,2712E-2,5C000400,-0724,1028,10312,024.3,045.2,0.163,754.0,01.17,0.508
2014-05-03 01:43:00,2739E-2,5C000400,-0724,1028,10222,024.4,045.2,0.163,754.0,01.17,0.508
2014-05-03 01:44:00,2708E-2,5C000400,-0724,1027,10290,024.4,045.2,0.163,754.0,01.17,0.508
2014-05-03 01:45:00,2701E-2,5C000400,-0724,1027,10297,024.3,045.2,0.163,753.9,01.17,0.508
2014-05-03 01:46:00,2701E-2,5C000400,-0724,1027,10332,024.3,045.2,0.163,753.9,01.17,0.508
2014-05-03 01:47:00,2700E-2,5C000400,-0724,1027,10248,024.4,045.2,0.163,754.0,01.17,0.508
2014-05-03 01:48:00,2697E-2,5C000400,-0724,1026,10286,024.4,045.2,0.163,753.9,01.17,0.508
2014-05-03 01:49:00,2714E-2,5C000400,-0724,1028,10158,024.4,045.2,0.163,753.9,01.17,0.508
2014-05-03 01:50:00,2735E-2,5C000400,-0724,1026,10256,024.4,045.2,0.163,753.9,01.17,0.508
2014-05-03 01:51:00,2689E-2,5C000400,-0724,1025,10300,024.4,045.2,0.163,753.9,01.17,0.508
2014-05-03 01:52:00,2726E-2,5C000400,-0724,1026,10246,024.4,045.2,0.163,753.9,01.17,0.508
2014-05-03 01:53:00,2659E-2,5C000400,-0724,1026,10374,024.4,045.2,0.163,753.9,01.17,0.508
2014-05-03 01:54:00,2707E-2,5C000400,-0724,1026,10198,024.4,045.2,0.163,753.9,01.17,0.508
2014-05-03 01:55:00,2688E-2,5C000400,-0724,1026,10210,024.4,045.2,0.163,753.9,01.17,0.508
2014-05-03 01:56:00,2734E-2,5C000400,-0724,1026,10267,024.4,045.2,0.163,753.8,01.17,0.508
2014-05-03 01:57:00,2705E-2,5C000400,-0724,1026,10375,024.4,045.2,0.163,753.7,01.17,0.508
2014-05-03 01:58:00,2747E-2,5C000400,-0724,1025,10308,024.5,045.2,0.163,753.8,01.17,0.508
2014-05-03 01:59:00,2668E-2,5C000400,-0724,1027,10242,024.4,045.2,0.163,753.9,01.17,0.508
2014-05-03 02:00:00,2702E-2,5C000400,-0724,1028,10054,024.5,045.2,0.163,753.8,01.17,0.508
2014-05-03 02:01:00,2719E-2,5C000400,-0724,1027,10389,024.5,045.2,0.162,753.8,01.17,0.508
2014-05-03 02:02:00,2745E-2,5C000400,-0724,1027,10205,024.5,045.2,0.162,753.8,01.17,0.508
2014-05-03 02:03:00,2746E-2,5C000400,-0724,1027,10202,024.5,045.2,0.163,753.8,01.17,0.508
2014-05-03 02:04:00,2732E-2,5C000400,-0724,1028,10316,024.5,045.2,0.162,753.8,01.17,0.508
2014-05-03 02:05:00,2720E-2,5C000400,-0724,1028,10264,024.5,045.2,0.163,753.8,01.17,0.508
2014-05-03 02:06:00,2797E-2,5C000410,-0724,1027,10123,024.5,045.2,0.162,753.7,01.17,0.508
2014-05-03 02:07:00,2748E-2,5C000400,-0724,1028,10229,024.5,045.2,0.162,753.7,01.17,0.508
2014-05-03 02:08:00,2734E-2,5C000400,-0724,1027,10130,024.5,045.2,0.162,753.7,01.17,0.508
2014-05-03 02:09:00,2764E-2,5C000400,-0724,1029,10127,024.5,045.2,0.162,753.8,01.17,0.508
2014-05-03 02:10:00,2769E-2,5C000400,-0724,1029,10164,024.5,045.2,0.162,753.8,01.17,0.508
2014-05-03 02:11:00,2761E-2,5C000400,-0724,1028,10255,024.5,045.2,0.162,753.7,01.17,0.508
2014-05-03 02:12:00,2763E-2,5C000400,-0724,1029,10109,024.5,045.2,0.162,753.7,01.17,0.508
2014-05-03 02:13:00,2774E-2,5C000400,-0724,1028,10231,024.6,045.2,0.162,753.7,01.17,0.508
2014-05-03 02:14:00,2781E-2,5C000400,-0724,1029,10227,024.6,045.2,0.162,753.7,01.17,0.508
2014-05-03 02:15:00,2789E-2,5C000400,-0724,1029,10389,024.6,045.2,0.162,753.7,01.17,0.508
2014-05-03 02:16:00,2785E-2,5C000400,-0724,1029,10334,024.6,045.2,0.162,753.6,01.17,0.508
2014-05-03 02:17:00,2770E-2,5C000400,-0724,1029,10238,024.6,045.2,0.000,753.5,01.17,0.508
2014-05-03 02:18:00,2779E-2,5C000400,-0724,1029,10104,024.6,045.2,0.000,753.5,01.17,0.508
2014-05-03 02:19:00,2813E-2,5C000400,-0724,1030,10151,024.6,045.2,0.000,753.6,01.17,0.508
2014-05-03 02:20:00,2778E-2,5C000400,-0724,1029,10326,024.6,045.2,0.000,753.6,01.17,0.508
2014-05-03 02:21:00,2792E-2,5C000400,-0724,1029,10293,024.6,045.2,0.000,753.5,01.17,0.508
2014-05-03 02:22:00,2775E-2,5C000400,-0724,1029,10218,024.6,045.2,0.000,753.5,01.17,0.508
2014-05-03 02:23:00,2831E-2,5C000400,-0724,1031,10297,024.6,045.2,0.000,753.5,01.17,0.508
2014-05-03 02:24:00,2779E-2,5C000400,-0724,1030,10070,024.6,045.2,0.000,753.5,01.17,0.508
2014-05-03 02:25:00,2792E-2,5C000400,-0724,1030,10335,024.6,045.2,0.000,753.5,01.17,0.508
2014-05-03 02:26:00,2805E-2,5C000400,-0724,1030,10134,024.6,045.2,0.000,753.5,01.17,0.508
2014-05-03 02:27:00,2789E-2,5C000400,-0724,1030,10309,024.7,045.2,0.000,753.5,01.17,0.508
2014-05-03 02:28:00,2841E-2,5C000400,-0724,1030,10276,024.6,045.2,0.000,753.6,01.17,0.508
2014-05-03 02:29:00,2830E-2,5C000400,-0724,1030,10113,024.6,045.2,0.000,753.5,01.17,0.508
2014-05-03 02:30:00,2761E-2,5C000400,-0724,1030,10386,024.6,045.2,0.000,753.5,01.17,0.508
2014-05-03 02:31:00,2823E-2,5C000400,-0724,1029,10239,024.6,045.2,0.000,753.5,01.17,0.508
2014-05-03 02:32:00,2790E-2,5C000400,-0724,1029,10330,024.7,045.2,0.000,753.5,01.17,0.508
2014-05-03 02:33:00,2819E-2,5C000400,-0724,1030,10141,024.7,045.2,0.000,753.4,01.17,0.508
2014-05-03 02:34:00,2800E-2,5C000400,-0724,1031,10207,024.7,045.2,0.000,753.4,01.17,0.508
2014-05-03 02:35:00,2799E-2,5C000400,-0724,1031,10157,024.7,045.2,0.000,753.4,01.17,0.508
2014-05-03 02:36:00,2832E-2,5C000400,-0724,1031,10105,024.7,045.2,0.000,753.5,01.17,0.508
2014-05-03 02:37:00,2863E-2,5C000400,-0724,1030,10195,024.7,045.2,0.000,753.4,01.17,0.508
2014-05-03 02:38:00,2822E-2,5C000400,-0724,1032,10158,024.7,045.2,0.000,753.4,01.17,0.508
2014-05-03 02:39:00,2767E-2,5C000400,-0724,1032,10287,024.7,045.2,0.000,753.4,01.17,0.508
2014-05-03 02:40:00,2815E-2,5C000400,-0724,1031,10271,024.7,045.2,0.000,753.3,01.17,0.508
2014-05-03 02:41:00,2828E-2,5C000400,-0724,1031,10302,024.7,045.2,0.000,753.4,01.17,0.508
2014-05-03 02:42:00,2783E-2,5C000400,-0724,1033,10241,024.7,045.2,0.000,753.4,01.17,0.508
2014-05-03 02:43:00,2793E-2,5C000400,-0724,1032,10144,024.7,045.2,0.000,753.4,01.17,0.508
2014-05-03 02:44:00,2810E-2,5C000400,-0724,1032,10236,024.7,045.2,0.000,753.4,01.17,0.508
2014-05-03 02:45:00,2844E-2,5C000400,-0724,1031,10207,024.7,045.2,0.000,753.3,01.17,0.508
2014-05-03 02:46:00,2833E-2,5C000410,-0724,1032,10209,024.7,045.2,0.000,753.3,01.17,0.508
2014-05-03 02:47:00,2845E-2,5C000400,-0724,1032,10209,024.7,045.2,0.000,753.2,01.17,0.508
2014-05-03 02:48:00,2863E-2,5C000400,-0724,1031,10065,024.7,045.2,0.000,753.2,01.17,0.508
2014-05-03 02:49:00,2801E-2,5C000400,-0724,1033,10225,024.7,045.2,0.000,753.3,01.17,0.508
2014-05-03 02:50:00,2833E-2,5C000400,-0724,1033,10206,024.7,045.2,0.000,753.3,01.17,0.508
2014-05-03 02:51:00,2849E-2,5C000400,-0724,1034,10199,024.7,045.2,0.000,753.2,01.17,0.508
2014-05-03 02:52:00,2857E-2,5C000400,-0724,1034,10275,024.7,045.2,0.000,753.2,01.17,0.508
2014-05-03 02:53:00,2831E-2,5C000400,-0724,1032,10017,024.7,045.2,0.000,753.2,01.17,0.508
2014-05-03 02:54:00,2819E-2,5C000400,-0724,1032,10192,024.7,045.2,0.000,753.2,01.17,0.508
2014-05-03 02:55:00,2854E-2,5C000410,-0724,1033,9967,024.7,045.2,0.000,753.2,01.17,0.508
2014-05-03 02:56:00,2815E-2,5C000400,-0724,1033,10159,024.7,045.2,0.000,753.2,01.17,0.508
2014-05-03 02:57:00,2875E-2,5C000400,-0724,1033,10058,024.7,045.2,0.000,753.2,01.17,0.508
2014-05-03 02:58:00,2839E-2,5C000400,-0724,1033,10202,024.7,045.2,0.000,753.1,01.17,0.508
2014-05-03 02:59:00,2873E-2,5C000400,-0724,1033,10066,024.7,045.2,0.000,753.1,01.17,0.508
2014-05-03 03:00:00,2858E-2,5C000400,-0724,1034,10253,024.8,045.2,0.000,753.1,01.17,0.508
2014-05-03 03:01:00,2848E-2,5C000400,-0724,1033,10283,024.7,045.2,0.000,753.1,01.17,0.508
2014-05-03 03:02:00,2898E-2,5C000400,-0724,1034,10143,024.8,045.2,0.000,753.1,01.17,0.508
2014-05-03 03:03:00,2893E-2,5C000400,-0724,1034,10113,024.8,045.2,0.000,753.1,01.17,0.508
2014-05-03 03:04:00,2913E-2,5C000400,-0724,1035,10275,024.7,045.2,0.000,753.1,01.17,0.508
2014-05-03 03:05:00,2887E-2,5C000400,-0724,1034,10134,024.8,045.2,0.000,753.1,01.17,0.508
2014-05-03 03:06:00,2882E-2,5C000400,-0724,1034,10137,024.8,045.2,0.000,753.1,01.17,0.508
2014-05-03 03:07:00,2899E-2,5C000400,-0724,1033,10232,024.8,045.2,0.000,753.2,01.17,0.508
2014-05-03 03:08:00,2874E-2,5C000400,-0724,1033,10246,024.8,045.2,0.000,753.3,01.17,0.508
2014-05-03 03:09:00,2875E-2,5C000400,-0724,1032,10331,024.8,045.2,0.000,753.3,01.17,0.508
2014-05-03 03:10:00,2870E-2,5C000400,-0724,1033,10292,024.8,045.2,0.000,753.2,01.17,0.508
2014-05-03 03:11:00,2857E-2,5C000400,-0724,1032,10172,024.8,045.2,0.000,753.3,01.17,0.508
2014-05-03 03:12:00,2829E-2,5C000400,-0724,1031,10089,024.8,045.2,0.000,753.3,01.17,0.508
2014-05-03 03:13:00,2832E-2,5C000400,-0724,1032,10155,024.8,045.2,0.000,753.3,01.17,0.508
2014-05-03 03:14:00,2841E-2,5C000400,-0724,1031,10285,024.8,045.2,0.000,753.2,01.17,0.508
2014-05-03 03:15:00,2821E-2,5C000400,-0724,1030,10254,024.8,045.2,0.000,753.1,01.17,0.508
2014-05-03 03:16:00,2833E-2,5C000400,-0724,1030,10169,024.8,045.2,0.000,753.2,01.17,0.508
2014-05-03 03:17:00,2782E-2,5C000400,-0724,1028,10292,024.8,045.2,0.000,753.2,01.17,0.508
2014-05-03 03:18:00,2835E-2,5C000400,-0724,1029,10273,024.8,045.2,0.000,753.2,01.17,0.508
2014-05-03 03:19:00,2794E-2,5C000400,-0724,1030,10281,024.8,045.2,0.000,753.1,01.17,0.508
2014-05-03 03:20:00,2818E-2,5C000400,-0724,1028,10183,024.8,045.2,0.000,753.1,01.17,0.508
2014-05-03 03:21:00,2778E-2,5C000400,-0724,1030,10301,024.8,045.2,0.000,753.1,01.17,0.508
2014-05-03 03:22:00,2797E-2,5C000400,-0724,1030,10207,024.8,045.2,0.000,753.1,01.17,0.508
2014-05-03 03:23:00,2845E-2,5C000400,-0724,1029,10267,024.8,045.2,0.000,753.1,01.17,0.508
2014-05-03 03:24:00,2817E-2,5C000400,-0724,1029,10156,024.8,045.2,0.000,753.0,01.17,0.508
2014-05-03 03:25:00,2851E-2,5C000400,-0724,1029,10226,024.8,045.2,0.000,753.0,01.17,0.508
2014-05-03 03:26:00,2795E-2,5C000400,-0724,1029,10237,024.8,045.2,0.000,753.0,01.17,0.508
2014-05-03 03:27:00,2810E-2,5C000400,-0724,1029,10279,024.8,045.2,0.000,753.0,01.17,0.508
2014-05-03 03:28:00,2805E-2,5C000400,-0724,1028,10386,024.8,045.2,0.000,753.0,01.17,0.508
2014-05-03 03:29:00,2772E-2,5C000400,-0724,1028,10255,024.8,045.2,0.000,752.9,01.17,0.508
2014-05-03 03:30:00,2803E-2,5C000400,-0724,1028,10284,024.8,045.2,0.000,752.8,01.17,0.508
2014-05-03 03:31:00,2805E-2,5C000400,-0724,1028,10384,024.8,045.2,0.000,752.8,01.17,0.508
2014-05-03 03:32:00,2795E-2,5C000400,-0724,1027,10028,024.9,045.2,0.000,752.8,01.17,0.508
2014-05-03 03:33:00,2824E-2,5C000400,-0724,1028,10255,024.9,045.2,0.000,752.8,01.17,0.508
2014-05-03 03:34:00,2823E-2,5C000400,-0724,1028,10144,024.9,045.2,0.000,752.8,01.17,0.508
2014-05-03 03:35:00,2801E-2,5C000400,-0724,1028,10206,024.9,045.2,0.000,752.8,01.17,0.508
2014-05-03 03:36:00,2812E-2,5C000400,-0724,1027,10252,024.9,045.2,0.000,752.8,01.17,0.508
2014-05-03 03:37:00,2880E-2,5C000400,-0724,1027,10309,024.9,045.2,0.000,752.7,01.17,0.508
2014-05-03 03:38:00,2827E-2,5C000400,-0724,1027,10209,024.9,045.2,0.000,752.8,01.17,0.508
2014-05-03 03:39:00,2801E-2,5C000400,-0724,1029,10238,024.9,045.2,0.000,752.7,01.17,0.508
2014-05-03 03:40:00,2842E-2,5C000400,-0724,1026,10240,024.9,045.2,0.000,752.7,01.17,0.508
2014-05-03 03:41:00,2882E-2,5C000400,-0724,1029,10215,024.9,045.2,0.000,752.8,01.17,0.508
2014-05-03 03:42:00,2826E-2,5C000400,-0724,1027,10341,024.9,045.2,0.000,752.7,01.17,0.508
2014-05-03 03:43:00,2852E-2,5C000400,-0724,1029,10255,024.9,045.2,0.000,752.7,01.17,0.508
2014-05-03 03:44:00,2867E-2,5C000400,-0724,1028,10141,024.9,045.2,0.000,752.6,01.17,0.508
2014-05-03 03:45:00,2865E-2,5C000400,-0724,1027,10228,024.9,045.2,0.000,752.6,01.17,0.508
2014-05-03 03:46:00,2809E-2,5C000400,-0724,1027,10042,024.9,045.2,0.000,752.6,01.17,0.508
2014-05-03 03:47:00,2910E-2,5C000400,-0724,1028,10035,024.9,045.2,0.000,752.5,01.17,0.508
2014-05-03 03:48:00,2886E-2,5C000400,-0724,1026,10079,024.9,045.2,0.000,752.5,01.17,0.508
2014-05-03 03:49:00,2842E-2,5C000400,-0724,1028,10120,024.9,045.2,0.000,752.5,01.17,0.508
2014-05-03 03:50:00,2908E-2,5C000400,-0724,1027,10208,024.9,045.2,0.000,752.6,01.17,0.508
2014-05-03 03:51:00,2876E-2,5C000400,-0724,1028,10290,024.9,045.2,0.000,752.5,01.17,0.508
2014-05-03 03:52:00,2857E-2,5C000400,-0724,1026,10055,024.9,045.2,0.000,752.5,01.17,0.508
2014-05-03 03:53:00,2818E-2,5C000400,-0724,1027,10139,024.9,045.2,0.000,752.5,01.17,0.508
2014-05-03 03:54:00,2850E-2,5C000400,-0724,1027,10274,025.0,045.2,0.000,752.5,01.17,0.508
2014-05-03 03:55:00,2819E-2,5C000400,-0724,1028,10267,024.9,045.2,0.000,752.5,01.17,0.508
2014-05-03 03:56:00,2878E-2,5C000400,-0724,1027,10284,024.9,045.2,0.000,752.4,01.17,0.508
2014-05-03 03:57:00,2874E-2,5C000400,-0724,1026,10274,024.9,045.2,0.000,752.4,01.17,0.508
2014-05-03 03:58:00,2824E-2,5C000400,-0724,1027,10225,025.0,045.2,0.000,752.4,01.17,0.508
2014-05-03 03:59:00,2817E-2,5C000400,-0724,1026,10287,025.0,045.2,0.000,752.4,01.17,0.508
2014-05-03 04:00:00,2839E-2,5C000400,-0724,1026,10138,024.9,045.2,0.000,752.3,01.17,0.508
2014-05-03 04:01:00,2840E-2,5C000400,-0724,1028,10204,025.0,045.2,0.000,752.3,01.17,0.508
2014-05-03 04:02:00,2871E-2,5C000400,-0724,1027,10246,025.0,045.2,0.000,752.3,01.17,0.508
2014-05-03 04:03:00,2824E-2,5C000400,-0724,1026,10294,025.0,045.2,0.000,752.3,01.17,0.508
2014-05-03 04:04:00,2822E-2,5C000400,-0724,1026,10243,025.0,045.2,0.000,752.2,01.17,0.508
2014-05-03 04:05:00,2876E-2,5C000400,-0724,1026,10267,025.0,045.2,0.000,752.3,01.17,0.508
2014-05-03 04:06:00,2871E-2,5C000400,-0724,1025,10372,025.0,045.2,0.000,752.3,01.17,0.508
2014-05-03 04:07:00,2893E-2,5C000400,-0724,1026,10348,025.0,045.2,0.000,752.3,01.17,0.508
2014-05-03 04:08:00,2813E-2,5C000400,-0724,1026,10435,025.0,045.2,0.000,752.2,01.17,0.508
2014-05-03 04:09:00,2878E-2,5C000400,-0724,1026,10241,025.0,045.2,0.000,752.2,01.17,0.508
2014-05-03 04:10:00,2874E-2,5C000400,-0724,1026,10403,025.0,045.2,0.000,752.2,01.17,0.508
2014-05-03 04:11:00,2883E-2,5C000400,-0724,1026,10107,025.0,045.3,0.000,752.1,01.17,0.508
2014-05-03 04:12:00,2876E-2,5C000400,-0724,1027,9958,025.0,045.2,0.000,752.1,01.17,0.508
2014-05-03 04:13:00,2915E-2,5C000400,-0724,1026,10306,025.0,045.2,0.000,752.1,01.17,0.508
2014-05-03 04:14:00,2867E-2,5C000400,-0724,1027,10250,025.0,045.2,0.000,752.1,01.17,0.508
2014-05-03 04:15:00,2860E-2,5C000400,-0724,1025,10082,025.0,045.2,0.000,752.1,01.17,0.508
2014-05-03 04:16:00,2885E-2,5C000400,-0724,1025,10337,025.0,045.2,0.000,752.1,01.17,0.508
2014-05-03 04:17:00,2851E-2,5C000400,-0724,1025,10245,025.1,045.2,0.000,752.1,01.17,0.508
2014-05-03 04:18:00,2851E-2,5C000400,-0724,1027,10287,025.1,045.2,0.000,752.0,01.17,0.508
2014-05-03 04:19:00,2894E-2,5C000400,-0724,1025,10282,025.1,045.2,0.000,752.0,01.17,0.508
2014-05-03 04:20:00,2883E-2,5C000400,-0724,1026,9937,025.1,045.2,0.000,752.0,01.17,0.508